| time (UTC) | temp C | wind direction | speed KPH | gust KPH | rain 1hr cm | rain 24hr cm | rain mn cm | humidity % | barometer mb |
| 20260506154910 | 8 | 128 | 6.4 | 12.9 | 0.03 | 2.59 | 2.59 | 94 | 1006.7 |
| 20260506153910 | 8 | 183 | 6.4 | 16.1 | 0.03 | 2.59 | 2.59 | 94 | 1006.5 |
| 20260506152910 | 8 | 60 | 6.4 | 12.9 | 0.03 | 2.59 | 2.59 | 94 | 1006.5 |
| 20260506151910 | 8 | 86 | 6.4 | 14.5 | 0.05 | 2.59 | 2.59 | 94 | 1006.5 |
| 20260506150910 | 8 | 208 | 8.0 | 12.9 | 0.03 | 2.57 | 2.57 | 94 | 1006.3 |
| 20260506145910 | 8 | 150 | 6.4 | 17.7 | 0.05 | 2.57 | 2.57 | 94 | 1006.3 |
| 20260506144910 | 8 | 182 | 4.8 | 14.5 | 0.08 | 2.57 | 2.57 | 94 | 1006.3 |
| 20260506143910 | 8 | 178 | 4.8 | 11.3 | 0.10 | 2.57 | 2.57 | 94 | 1006.3 |
| 20260506142910 | 8 | 153 | 8.0 | 16.1 | 0.13 | 2.57 | 2.57 | 94 | 1006.2 |
| 20260506141910 | 8 | 306 | 4.8 | 14.5 | 0.10 | 2.54 | 2.54 | 94 | 1006.2 |
| 20260506140910 | 8 | 211 | 6.4 | 12.9 | 0.10 | 2.54 | 2.54 | 94 | 1006.3 |
| 20260506135910 | 8 | 291 | 4.8 | 11.3 | 0.10 | 2.51 | 2.51 | 94 | 1006.3 |
| 20260506134910 | 8 | 183 | 3.2 | 9.7 | 0.08 | 2.49 | 2.49 | 94 | 1006.4 |
| 20260506133910 | 8 | 248 | 3.2 | 8.0 | 0.08 | 2.46 | 2.46 | 94 | 1006.3 |
| 20260506132910 | 8 | 141 | 4.8 | 11.3 | 0.05 | 2.44 | 2.44 | 94 | 1006.3 |
| 20260506131910 | 8 | 177 | 6.4 | 12.9 | 0.08 | 2.44 | 2.44 | 94 | 1005.9 |
| 20260506130909 | 8 | 198 | 4.8 | 9.7 | 0.08 | 2.44 | 2.44 | 94 | 1005.8 |
| 20260506125910 | 8 | 244 | 4.8 | 11.3 | 0.05 | 2.41 | 2.41 | 94 | 1005.8 |
| 20260506124910 | 8 | 202 | 3.2 | 8.0 | 0.08 | 2.41 | 2.41 | 94 | 1005.9 |
| 20260506123909 | 8 | 173 | 4.8 | 8.0 | 0.08 | 2.39 | 2.39 | 95 | 1005.7 |
| 20260506122909 | 8 | 165 | 4.8 | 11.3 | 0.10 | 2.39 | 2.39 | 94 | 1005.8 |
| 20260506121910 | 8 | 227 | 3.2 | 9.7 | 0.08 | 2.39 | 2.39 | 94 | 1005.7 |
| 20260506120910 | 8 | 202 | 4.8 | 11.3 | 0.10 | 2.39 | 2.39 | 94 | 1005.6 |
| 20260506115910 | 8 | 180 | 3.2 | 11.3 | 0.13 | 2.39 | 2.39 | 94 | 1005.6 |
| 20260506114909 | 8 | 119 | 3.2 | 9.7 | 0.10 | 2.36 | 2.36 | 94 | 1005.5 |
| 20260506113917 | 8 | 94 | 3.2 | 8.0 | 0.10 | 2.34 | 2.34 | 94 | 1005.6 |
| 20260506112909 | 7 | 332 | 4.8 | 9.7 | 0.08 | 2.31 | 2.31 | 94 | 1005.6 |
| 20260506111909 | 7 | 192 | 4.8 | 8.0 | 0.08 | 2.31 | 2.31 | 94 | 1005.7 |
| 20260506110914 | 7 | 82 | 4.8 | 14.5 | 0.08 | 2.29 | 2.29 | 94 | 1005.6 |
| 20260506105914 | 7 | 99 | 6.4 | 14.5 | 0.05 | 2.26 | 2.26 | 94 | 1005.5 |
| 20260506104914 | 7 | 129 | 4.8 | 12.9 | 0.08 | 2.26 | 2.26 | 94 | 1005.6 |
| 20260506103914 | 7 | 204 | 4.8 | 12.9 | 0.05 | 2.24 | 2.24 | 94 | 1005.4 |
| 20260506102914 | 7 | 15 | 4.8 | 16.1 | 0.05 | 2.24 | 2.24 | 94 | 1005.5 |
| 20260506101914 | 7 | 115 | 6.4 | 14.5 | 0.08 | 2.24 | 2.24 | 94 | 1005.5 |
| 20260506100914 | 7 | 195 | 4.8 | 16.1 | 0.08 | 2.21 | 2.21 | 94 | 1005.4 |
| 20260506095914 | 7 | 244 | 6.4 | 20.9 | 0.08 | 2.21 | 2.21 | 94 | 1005.3 |
| 20260506094914 | 7 | 209 | 8.0 | 17.7 | 0.08 | 2.18 | 2.18 | 94 | 1005.3 |
| 20260506093914 | 7 | 113 | 6.4 | 16.1 | 0.08 | 2.18 | 2.18 | 94 | 1005.2 |
| 20260506092914 | 7 | 217 | 6.4 | 12.9 | 0.10 | 2.18 | 2.18 | 94 | 1005.1 |
| 20260506091914 | 7 | 289 | 6.4 | 12.9 | 0.10 | 2.16 | 2.16 | 94 | 1005.1 |
| 20260506090914 | 7 | 151 | 6.4 | 16.1 | 0.08 | 2.13 | 2.13 | 94 | 1005.0 |
| 20260506085914 | 7 | 237 | 8.0 | 19.3 | 0.10 | 2.13 | 2.13 | 94 | 1004.9 |
| 20260506084914 | 7 | 296 | 8.0 | 16.1 | 0.10 | 2.11 | 2.11 | 94 | 1004.8 |
| 20260506083914 | 7 | 196 | 8.0 | 19.3 | 0.13 | 2.11 | 2.11 | 94 | 1004.6 |
| 20260506082914 | 7 | 150 | 6.4 | 17.7 | 0.13 | 2.08 | 2.08 | 94 | 1004.6 |
| 20260506081914 | 6 | 101 | 6.4 | 12.9 | 0.15 | 2.06 | 2.06 | 94 | 1004.5 |
| 20260506080914 | 6 | 187 | 6.4 | 12.9 | 0.20 | 2.06 | 2.06 | 94 | 1004.5 |
| 20260506072914 | 6 | 245 | 8.0 | 19.3 | 0.25 | 1.96 | 1.96 | 94 | 1004.3 |
| 20260506071914 | 6 | 227 | 8.0 | 16.1 | 0.25 | 1.93 | 1.93 | 93 | 1004.3 |
| 20260506070914 | 6 | 153 | 6.4 | 14.5 | 0.25 | 1.88 | 1.88 | 93 | 1004.4 |
| 20260506061914 | 7 | 257 | 6.4 | 12.9 | 0.23 | 1.65 | 1.65 | 93 | 1004.2 |
| 20260506060914 | 7 | 194 | 6.4 | 11.3 | 0.23 | 1.60 | 1.60 | 93 | 1004.1 |
| 20260505220912 | 10 | 226 | 6.4 | 16.1 | 0.00 | 0.08 | 0.00 | 94 | 1006.2 |
| 20260505215912 | 10 | 202 | 8.0 | 17.7 | 0.00 | 0.13 | 0.13 | 93 | 1006.2 |
| 20260505214912 | 10 | 241 | 6.4 | 16.1 | 0.00 | 0.13 | 0.13 | 93 | 1006.3 |
| 20260505213912 | 10 | 232 | 6.4 | 14.5 | 0.00 | 0.13 | 0.13 | 93 | 1006.5 |
| 20260505212912 | 10 | 93 | 6.4 | 11.3 | 0.00 | 0.13 | 0.13 | 93 | 1006.5 |
| 20260505211912 | 11 | 225 | 4.8 | 12.9 | 0.00 | 0.13 | 0.13 | 93 | 1006.5 |
| 20260505210912 | 11 | 206 | 6.4 | 12.9 | 0.00 | 0.13 | 0.13 | 93 | 1006.6 |
| 20260505205912 | 11 | 163 | 6.4 | 16.1 | 0.00 | 0.15 | 0.13 | 93 | 1006.5 |
| 20260505204912 | 11 | 299 | 4.8 | 9.7 | 0.00 | 0.15 | 0.13 | 93 | 1006.6 |
| 20260505203912 | 11 | 360 | 6.4 | 16.1 | 0.00 | 0.15 | 0.13 | 93 | 1006.7 |
| 20260505202912 | 11 | 360 | 6.4 | 12.9 | 0.00 | 0.15 | 0.13 | 93 | 1006.6 |
| 20260505201912 | 11 | 315 | 4.8 | 16.1 | 0.00 | 0.15 | 0.13 | 93 | 1006.6 |
| 20260505200912 | 11 | 149 | 4.8 | 14.5 | 0.00 | 0.15 | 0.13 | 93 | 1006.6 |
| 20260505195912 | 11 | 209 | 4.8 | 11.3 | 0.00 | 0.46 | 0.13 | 93 | 1006.5 |
| 20260505194912 | 11 | 189 | 4.8 | 16.1 | 0.00 | 0.46 | 0.13 | 93 | 1006.5 |
| 20260505193912 | 11 | 180 | 6.4 | 12.9 | 0.00 | 0.46 | 0.13 | 93 | 1006.5 |
| 20260505192912 | 11 | 227 | 4.8 | 8.0 | 0.00 | 0.46 | 0.13 | 93 | 1006.6 |
| 20260505191912 | 11 | 292 | 4.8 | 12.9 | 0.00 | 0.46 | 0.13 | 93 | 1006.4 |
| 20260505190912 | 11 | 294 | 4.8 | 16.1 | 0.00 | 0.46 | 0.13 | 93 | 1006.4 |
| 20260505185912 | 11 | 228 | 4.8 | 14.5 | 0.00 | 0.53 | 0.13 | 93 | 1006.4 |
| 20260505184912 | 11 | 189 | 4.8 | 16.1 | 0.00 | 0.53 | 0.13 | 93 | 1006.5 |
| 20260505183912 | 11 | 91 | 4.8 | 14.5 | 0.00 | 0.53 | 0.13 | 93 | 1006.6 |
| 20260505182912 | 11 | 271 | 6.4 | 14.5 | 0.00 | 0.53 | 0.13 | 93 | 1006.5 |
| 20260505181912 | 11 | 213 | 6.4 | 12.9 | 0.00 | 0.53 | 0.13 | 93 | 1006.5 |
| 20260505180912 | 11 | 251 | 4.8 | 11.3 | 0.00 | 0.53 | 0.13 | 92 | 1006.6 |
| 20260505175912 | 11 | 329 | 6.4 | 16.1 | 0.00 | 0.53 | 0.13 | 92 | 1006.6 |
| 20260505174912 | 11 | 186 | 3.2 | 8.0 | 0.00 | 0.53 | 0.13 | 92 | 1006.6 |
| 20260505173912 | 11 | 261 | 4.8 | 12.9 | 0.00 | 0.53 | 0.13 | 92 | 1006.8 |
| 20260505172912 | 11 | 155 | 3.2 | 12.9 | 0.00 | 0.53 | 0.13 | 92 | 1006.7 |
| 20260505171912 | 11 | 96 | 6.4 | 12.9 | 0.00 | 0.53 | 0.13 | 92 | 1006.7 |
| 20260505170912 | 11 | 285 | 4.8 | 12.9 | 0.00 | 0.53 | 0.13 | 92 | 1006.7 |
| 20260505165912 | 11 | 223 | 3.2 | 8.0 | 0.00 | 0.53 | 0.13 | 92 | 1006.8 |
| 20260505164912 | 11 | 223 | 3.2 | 6.4 | 0.00 | 0.53 | 0.13 | 91 | 1006.9 |
| 20260505163912 | 11 | 333 | 3.2 | 8.0 | 0.00 | 0.53 | 0.13 | 91 | 1007.1 |
| 20260505162912 | 11 | 85 | 3.2 | 8.0 | 0.00 | 0.53 | 0.13 | 91 | 1007.1 |
| 20260505161912 | 11 | 176 | 3.2 | 9.7 | 0.00 | 0.53 | 0.13 | 91 | 1007.2 |
| 20260505160912 | 11 | 336 | 4.8 | 14.5 | 0.00 | 0.53 | 0.13 | 91 | 1007.3 |